Location: Oregon Trail
(41.1872°N, 102.0741°W)
Time: 13:19:06
(UTC+00:00)

NOAA 6 - Pass Details

Date: 19 November 2019
Orbit: 771 x 788 km, 98.6° (Epoch: 09 December)

Event Time Altitude Azimuth Distance (km) Brightness Sun altitude
Rises 13:05:14 0° 6° (N) 3,261 7.1 -7.0°
Reaches altitude 10° 13:07:39 10° 359° (N) 2,328 6.3 -6.6°
Maximum altitude 13:12:26 41° 291° (WNW) 1,113 4.4 -5.7°
Drops below altitude 10° 13:17:10 10° 222° (SW) 2,310 6.3 -4.9°
Sets 13:19:34 0° 215° (SW) 3,233 7.1 -4.5°
